When you browse on this site, cookies collect data to enhance your experience and personalize the content and advertising you see.
Visit our Privacy Policy to learn more. By continuing to use the site, you agree to this use of cookies and data.
  • In Netherlands
  • List of Countries
  • For 7 days
  • Water Temperature
  • Satellite Maps
  • Weather Map
  • Weather Widgets
  • user-avatar
    Login

    Hourly Weather Kalgoorlie

    Today, 27 June, Thursday

    Time Temperature Precipitation Wind Pressure Humidity
    00:00 +16°C° 0 mm 8 mps 725 mmHg 81%
    01:00 +16°C° 0 mm 8 mps 725 mmHg 82%
    02:00 +15°C° 0 mm 8 mps 724 mmHg 83%
    03:00 +15°C° 0 mm 8 mps 724 mmHg 83%
    04:00 +13°C° 0 mm 8 mps 724 mmHg 83%
    05:00 +13°C° 0 mm 8 mps 724 mmHg 83%
    06:00 +13°C° 0.1 mm 8 mps 725 mmHg 83%
    07:00 +13°C° 0.1 mm 8 mps 725 mmHg 83%
    08:00 +14°C° 0 mm 7 mps 726 mmHg 82%
    09:00 +15°C° 0.2 mm 7 mps 726 mmHg 76%
    10:00 +15°C° 0.2 mm 7 mps 726 mmHg 70%
    11:00 +15°C° 0.2 mm 7 mps 726 mmHg 64%
    12:00 +16°C° 0 mm 9 mps 726 mmHg 60%
    13:00 +16°C° 0 mm 10 mps 726 mmHg 57%
    14:00 +17°C° 0 mm 11 mps 725 mmHg 53%
    15:00 +16°C° 0 mm 9 mps 726 mmHg 56%
    16:00 +16°C° 0 mm 7 mps 726 mmHg 58%
    17:00 +15°C° 0 mm 6 mps 726 mmHg 60%
    18:00 +14°C° 0 mm 6 mps 726 mmHg 63%
    19:00 +14°C° 0 mm 6 mps 726 mmHg 65%
    20:00 +13°C° 0 mm 6 mps 727 mmHg 68%
    21:00 +12°C° 0 mm 5 mps 727 mmHg 71%
    22:00 +12°C° 0 mm 5 mps 727 mmHg 73%
    23:00 +10°C° 0 mm 5 mps 727 mmHg 76%

    Tomorrow, 28 June, Friday

    Time Temperature Precipitation Wind Pressure Humidity
    00:00 +10°C° 0 mm 5 mps 727 mmHg 79%
    01:00 +9°C° 0 mm 5 mps 727 mmHg 82%
    02:00 +9°C° 0 mm 5 mps 727 mmHg 85%
    03:00 +8°C° 0.2 mm 5 mps 728 mmHg 84%
    04:00 +8°C° 0.2 mm 5 mps 728 mmHg 83%
    05:00 +8°C° 0.2 mm 5 mps 729 mmHg 82%
    06:00 +8°C° 0.3 mm 6 mps 729 mmHg 79%
    07:00 +6°C° 0.3 mm 7 mps 730 mmHg 77%
    08:00 +6°C° 0.3 mm 7 mps 730 mmHg 74%
    09:00 +7°C° 0 mm 8 mps 731 mmHg 68%
    10:00 +7°C° 0 mm 9 mps 732 mmHg 61%
    11:00 +8°C° 0 mm 9 mps 733 mmHg 55%
    12:00 +10°C° 0 mm 9 mps 733 mmHg 50%
    13:00 +10°C° 0 mm 9 mps 732 mmHg 46%
    14:00 +10°C° 0 mm 9 mps 732 mmHg 41%
    15:00 +10°C° 0 mm 7 mps 733 mmHg 43%
    16:00 +9°C° 0 mm 6 mps 734 mmHg 44%
    17:00 +9°C° 0 mm 5 mps 734 mmHg 45%
    18:00 +8°C° 0 mm 5 mps 735 mmHg 49%
    19:00 +7°C° 0 mm 4 mps 735 mmHg 53%
    20:00 +7°C° 0 mm 4 mps 736 mmHg 57%
    21:00 +6°C° 0 mm 4 mps 736 mmHg 60%
    22:00 +6°C° 0 mm 4 mps 736 mmHg 62%
    23:00 +5°C° 0 mm 4 mps 737 mmHg 65%

    Day after tomorrow, 29 June, Saturday

    Time Temperature Precipitation Wind Pressure Humidity
    00:00 +5°C° 0 mm 4 mps 737 mmHg 68%
    01:00 +4°C° 0 mm 3 mps 737 mmHg 70%
    02:00 +4°C° 0 mm 3 mps 736 mmHg 72%
    03:00 +4°C° 0 mm 3 mps 737 mmHg 74%
    04:00 +4°C° 0 mm 3 mps 737 mmHg 75%
    05:00 +3°C° 0 mm 3 mps 737 mmHg 77%
    06:00 +4°C° 0 mm 2 mps 737 mmHg 76%
    07:00 +5°C° 0 mm 2 mps 737 mmHg 75%
    08:00 +5°C° 0 mm 2 mps 737 mmHg 74%
    09:00 +6°C° 0 mm 2 mps 737 mmHg 66%
    10:00 +9°C° 0 mm 1 mps 737 mmHg 58%
    11:00 +9°C° 0 mm 0 mps 738 mmHg 51%
    12:00 +11°C° 0 mm 1 mps 737 mmHg 46%
    13:00 +12°C° 0 mm 2 mps 736 mmHg 42%
    14:00 +12°C° 0 mm 3 mps 736 mmHg 37%
    15:00 +11°C° 0 mm 3 mps 736 mmHg 39%
    16:00 +11°C° 0 mm 3 mps 736 mmHg 40%
    17:00 +10°C° 0 mm 3 mps 736 mmHg 42%
    18:00 +10°C° 0 mm 3 mps 736 mmHg 44%
    19:00 +9°C° 0 mm 3 mps 736 mmHg 45%
    20:00 +9°C° 0 mm 3 mps 736 mmHg 47%
    21:00 +9°C° 0 mm 3 mps 736 mmHg 48%
    22:00 +8°C° 0 mm 3 mps 736 mmHg 49%
    23:00 +8°C° 0 mm 3 mps 736 mmHg 50%

    30 June, Sunday

    Time Temperature Precipitation Wind Pressure Humidity
    00:00 +8°C° 0 mm 2 mps 736 mmHg 50%
    01:00 +7°C° 0 mm 2 mps 735 mmHg 51%
    02:00 +7°C° 0 mm 2 mps 735 mmHg 52%
    03:00 +7°C° 0 mm 2 mps 735 mmHg 52%
    04:00 +7°C° 0 mm 2 mps 735 mmHg 53%
    05:00 +7°C° 0 mm 2 mps 735 mmHg 53%
    06:00 +7°C° 0 mm 2 mps 735 mmHg 53%
    07:00 +7°C° 0 mm 2 mps 735 mmHg 52%
    08:00 +8°C° 0 mm 2 mps 735 mmHg 52%
    09:00 +9°C° 0 mm 3 mps 735 mmHg 45%
    10:00 +11°C° 0 mm 3 mps 735 mmHg 39%
    11:00 +13°C° 0 mm 4 mps 735 mmHg 33%
    12:00 +13°C° 0 mm 4 mps 734 mmHg 31%
    13:00 +14°C° 0 mm 5 mps 734 mmHg 29%
    14:00 +15°C° 0 mm 5 mps 733 mmHg 28%
    15:00 +14°C° 0 mm 4 mps 733 mmHg 30%
    16:00 +13°C° 0 mm 4 mps 733 mmHg 33%
    17:00 +12°C° 0 mm 3 mps 732 mmHg 36%
    18:00 +11°C° 0 mm 3 mps 733 mmHg 37%
    19:00 +11°C° 0 mm 3 mps 733 mmHg 38%
    20:00 +10°C° 0 mm 3 mps 733 mmHg 39%
    21:00 +10°C° 0 mm 3 mps 733 mmHg 40%
    22:00 +9°C° 0 mm 2 mps 733 mmHg 41%
    23:00 +9°C° 0 mm 2 mps 733 mmHg 41%

    1 July, Monday

    Time Temperature Precipitation Wind Pressure Humidity
    00:00 +8°C° 0 mm 3 mps 733 mmHg 42%
    01:00 +8°C° 0 mm 3 mps 733 mmHg 43%
    02:00 +8°C° 0 mm 3 mps 732 mmHg 43%
    03:00 +7°C° 0 mm 3 mps 732 mmHg 45%
    04:00 +7°C° 0 mm 2 mps 732 mmHg 46%
    05:00 +7°C° 0 mm 2 mps 732 mmHg 48%
    06:00 +7°C° 0 mm 2 mps 732 mmHg 48%
    07:00 +7°C° 0 mm 2 mps 733 mmHg 48%
    08:00 +8°C° 0 mm 2 mps 733 mmHg 48%
    09:00 +10°C° 0 mm 2 mps 733 mmHg 43%
    10:00 +12°C° 0 mm 2 mps 733 mmHg 38%
    11:00 +14°C° 0 mm 2 mps 733 mmHg 33%
    12:00 +15°C° 0 mm 2 mps 733 mmHg 32%
    13:00 +16°C° 0 mm 2 mps 732 mmHg 32%
    14:00 +17°C° 0 mm 2 mps 732 mmHg 32%
    15:00 +16°C° 0 mm 1 mps 732 mmHg 38%
    16:00 +15°C° 0 mm 1 mps 732 mmHg 43%
    17:00 +14°C° 0 mm 1 mps 732 mmHg 49%
    18:00 +13°C° 0 mm 1 mps 732 mmHg 50%
    19:00 +13°C° 0 mm 1 mps 733 mmHg 51%
    20:00 +12°C° 0 mm 1 mps 733 mmHg 52%
    21:00 +12°C° 0 mm 1 mps 733 mmHg 54%
    22:00 +12°C° 0 mm 1 mps 733 mmHg 57%
    23:00 +11°C° 0 mm 1 mps 733 mmHg 60%

    2 July, Tuesday

    Time Temperature Precipitation Wind Pressure Humidity
    00:00 +11°C° 0 mm 1 mps 733 mmHg 63%
    01:00 +10°C° 0 mm 2 mps 733 mmHg 67%
    02:00 +9°C° 0 mm 2 mps 734 mmHg 71%
    03:00 +9°C° 0 mm 2 mps 734 mmHg 71%
    04:00 +9°C° 0 mm 3 mps 734 mmHg 71%
    05:00 +9°C° 0 mm 3 mps 734 mmHg 71%
    06:00 +9°C° 0 mm 3 mps 734 mmHg 73%
    07:00 +9°C° 0 mm 3 mps 734 mmHg 76%
    08:00 +9°C° 0 mm 3 mps 735 mmHg 78%
    09:00 +11°C° 0 mm 4 mps 735 mmHg 73%
    10:00 +12°C° 0 mm 4 mps 735 mmHg 68%
    11:00 +14°C° 0 mm 5 mps 735 mmHg 62%
    12:00 +14°C° 0 mm 5 mps 734 mmHg 58%
    13:00 +15°C° 0 mm 4 mps 734 mmHg 55%
    14:00 +15°C° 0 mm 4 mps 733 mmHg 51%
    15:00 +15°C° 0 mm 4 mps 733 mmHg 53%
    16:00 +14°C° 0 mm 4 mps 734 mmHg 55%
    17:00 +14°C° 0 mm 4 mps 734 mmHg 57%
    18:00 +14°C° 0 mm 4 mps 734 mmHg 59%
    19:00 +13°C° 0 mm 4 mps 734 mmHg 61%
    20:00 +13°C° 0 mm 5 mps 735 mmHg 63%
    21:00 +12°C° 0 mm 5 mps 735 mmHg 64%
    22:00 +12°C° 0 mm 5 mps 734 mmHg 65%
    23:00 +10°C° 0 mm 5 mps 734 mmHg 66%
    Show more